COSMOS 2251 DEB, 36049

Orbit data source: Space-Track

COSMOS 2251 DEB, 36049 is space debris in LEO originally from a launch on Wed, 16 Jun 1993 UTC launched from the Plesetsk Missile And Space Complex (PKMTR). The debris from Iridium 33, an American commercial communications satellite, has been tracked extensively since its accidental collision with the defunct Russian satellite Cosmos 2251 in 2009. This event, occurring at high speed in low Earth orbit (LEO), generated thousands of pieces of space debris, significantly increasing the risk of further collisions. The Iridium 33 debris cloud has impacted space traffic management and orbital debris mitigation strategies, making it a subject of ongoing study in space situational awareness.

Loading next visibility...
Identifier
36049, 1993-036AXL
Orbit
LEO
Country
Flag of CISCIS
Related business
Manufacturer
Unknown
Mission
Spacecraft
Bus & Motor
Unknown
Mass
Unknown
Launch date (UTC)
1993-06-16 (33 years ago)
Launch vehicle
Unknown
Launch site
Plesetsk Missile And Space Complex (PKMTR)
Object type
Payload
Rocket body
Debris
Shape & HBR
Unknown shape, 0.1 m
Radar Cross Section
Small (<0.1 m²)

Expand to show TLE details & history
Last TLE update: 9 hours ago

TLE from 9 hours ago
0 COSMOS 2251 DEB
1 36049U 93036AXL 26120.24599998  .00004813  00000-0  92567-3 0  9997
2 36049  74.0306 213.4887 0011534 269.3686  90.6160 14.63852529873905
Epoch: 2026-04-30T05:54Z
TLE epoch observation values (Epoch: 2026-04-30T05:54:14.398Z)
Latitude
-0.00001°
Longitude
-93.26666°
Altitude
683.503 km
Speed
7.515 km/s
True Right ascension
14h 13m 57s
True Declination
0° 00' 00"
Sunlit
Object was in full shadow at epoch
Visualization orbit readout
Latitude
Unknown
Longitude
Unknown
Altitude
Unknown
Speed
Unknown
Apparent Right ascension
Unknown
Apparent Declination
Unknown
Sunlit
N/A
Visualization observer readout
Local Sidereal Time
22:09:51
Azimuth
Unknown
Elevation
Unknown
Doppler factor
Unknown
Orbital elements
Apogee altitude
686.495 km
Perigee altitude
670.217 km
Semi-major axis
7,056.493 km
Eccentricity
0.00115
Inclination
74.0306°
RAAN
213.4887°
Arg. of periapsis
269.3686°
True anomaly
90.74816°
Mean anomaly
90.616°
Eccentric anomaly
90.68208°
Mean motion
3.66151 °/min
Orbital period
98.32 mins
BSTAR
0.00092567
Loading maneuver chart data...
Computing Atmospheric mass density...

Documentation

Showing up to 5 results
|